Flag for Pakistan Weather past 2 weeks in Islamabad, Pakistan

Now
91 °F

Scattered clouds.


Feels Like: 96 °F
Forecast: 80 / 98 °F
Wind: 16 mph from East

Location: Islamabad Airport

Current Time: Jul 6, 2015 at 2:46:00 PM

Latest Report: Jul 6, 2015 at 2:00 PM


Visibility: 4 mi

Pressure: 29.50 "Hg (27.73 "Hg at 554m altitude)

Humidity: 46%

Dew point: 68 °F

Location of IslamabadLocation

Historic Weather in Islamabad — Graph

°F

Islamabad temperature yesterday

Maximum temperature yesterday: 104 °F (at 5:00 PM)
Minimum temperature yesterday: 86 °F (at 5:00 AM)
Average temperature yesterday: 95 °F

Past Weeks' High & Low Weather Summary

 TemperatureHumidityPressure
High104 °F (Jul 5, 5:00 PM)94% (Jun 24, 11:00 AM)29.80 "Hg (Jun 24, 11:00 AM)
Low66 °F (Jun 24, 11:00 AM)29% (Jun 27, 3:00 PM)29.42 "Hg (Jul 5, 3:00 PM)
Average87 °F52%29.58 "Hg
* Reported Jun 21 1:00 PM — Jul 6 1:00 PM, Islamabad, Weather by CustomWeather, © 2015

Note: Actual official high and low records may vary slightly from our data, if they occured in-between our weather recording intervals... More about our weather records

Advertising

Islamabad weather history for previous 24 hours

 ConditionsComfort  
Time TempWeatherWind HumidityBarometerVisibility
1:00 PM
Mon, Jul 6
90 °FHaze.21 mph49%29.50 "Hg4 mi
12:00 PM86 °FBroken clouds.21 mph55%29.53 "Hg4 mi
11:00 AM84 °FBroken clouds.21 mph58%29.53 "Hg2 mi
9:00 AM86 °FBroken clouds.18 mph59%29.50 "Hg2 mi
8:00 AM86 °FBroken clouds.12 mph62%29.50 "Hg2 mi
7:00 AM82 °FBroken clouds.9 mph66%29.50 "Hg2 mi
6:00 AM81 °FBroken clouds.16 mph70%29.50 "Hg2 mi
5:00 AM82 °FPartly cloudy.14 mph66%29.47 "Hg2 mi
4:00 AM84 °FPassing clouds.12 mph66%29.45 "Hg2 mi
3:00 AM84 °FThundershowers. Passing clouds.7 mph66%29.42 "Hg2 mi
2:00 AM84 °FThundershowers. Passing clouds.7 mph66%29.42 "Hg2 mi
1:00 AM86 °FThundershowers. Passing clouds.18 mph59%29.47 "Hg2 mi
12:00 AM88 °FThunderstorms. Partly cloudy.35 mph62%29.47 "Hg2 mi
11:00 PM
Sun, Jul 5
95 °FThundershowers. Passing clouds.7 mph50%29.45 "Hg2 mi
10:00 PM95 °FPassing clouds.9 mph47%29.45 "Hg2 mi
9:00 PM95 °FPassing clouds.12 mph47%29.45 "Hg2 mi
8:00 PM99 °FHaze.9 mph42%29.42 "Hg2 mi
7:00 PM100 °FHaze.7 mph37%29.42 "Hg2 mi
6:00 PM102 °FHaze.7 mph37%29.42 "Hg2 mi
5:00 PM104 °FHaze.9 mph38%29.42 "Hg2 mi
4:00 PM102 °FHaze.9 mph37%29.42 "Hg2 mi
3:00 PM102 °FHaze.9 mph37%29.42 "Hg2 mi
2:00 PM102 °FHaze.9 mph40%29.45 "Hg2 mi
Weather by CustomWeather, © 2015

See weather overviewHow to use our weather pages